Regional Weather Roundup
Issued by NWS

Home | Current Version | Previous Version | Text Only | Print | Product List | Glossary Off
Versions: 1 2 3 4 5 6 7 8 9 10 11 12 13 14 15 16 17 18 19 20 21 22 23 24 25 26 27 28 29 30 31 32 33 34 35 36 37 38 39 40 41 42 43 44 45 46 47 48 49 50

000
ASUS45 KCYS 241610
RWRWY

WYOMING REGIONAL WEATHER ROUNDUP
NATIONAL WEATHER SERVICE CHEYENNE WY
1000 AM MDT FRI APR 24 2015

NOTE:  "FAIR" INDICATES FEW OR NO CLOUDS BELOW 12,000 FEET
WITH NO SIGNIFICANT WEATHER AND/OR OBSTRUCTIONS TO VISIBILITY.

WYZ001-241700-
YELLOWSTONE NATIONAL PARK

CITY           SKY/WX    TMP DP  RH WIND       PRES   REMARKS
LK YELLOWSTONE   N/A     36  25  64 E3        29.78F
W YELLOWSTONE  NOT AVBL

$$
WYZ002>013-054>058-071-098>099-241700-
NORTHERN WYOMING

CITY           SKY/WX    TMP DP  RH WIND       PRES   REMARKS
JACKSON        SUNNY     45  34  65 CALM      29.76S
CODY           FAIR      57  27  30 W13G23    29.65S
GREYBULL       FAIR      54  42  64 VRB3      29.64F
WORLAND        FAIR      51  43  74 S3        29.64F
SHERIDAN       FAIR      57  42  57 CALM      29.62F
BUFFALO        FAIR      60  35  39 VRB3      29.65S
GILLETTE       CLOUDY    55  42  61 VRB3      29.65S
HULETT         PTSUNNY   57  37  47 N8        29.66S
NEWCASTLE      FAIR      54  36  50 W3        29.65S

$$
WYZ014>020-022>026-101>103-241700-
CENTRAL WYOMING

CITY           SKY/WX    TMP DP  RH WIND       PRES   REMARKS
BIG PINEY      FAIR      41  34  76 CALM      29.79F
PINEDALE       PTSUNNY   41  34  75 SE3       29.79F
DUBOIS         FAIR      50  19  29 NW16G22   29.72F
LANDER         FAIR      54  30  40 VRB3      29.68F
RIVERTON       FAIR      56  26  31 NW10      29.69F
CASPER         FAIR      57  36  45 SW15      29.69S
DOUGLAS        FAIR      60  36  40 W14       29.67F

$$
WYZ021-027>030-104>119-241700-
SOUTHERN WYOMING

CITY           SKY/WX    TMP DP  RH WIND       PRES   REMARKS
EVANSTON       FAIR      47  31  53 SW9       29.79S
KEMMERER       PTSUNNY   45  34  65 W14G26    29.79F
FORT BRIDGER   SUNNY     54  30  40 W14G20    29.81F
ROCK SPRINGS   FAIR      48  33  56 W7        29.77F
DIXON          FAIR      52  31  44 SW13      29.81F
RAWLINS        FAIR      53  30  41 SW21G26   29.76F
SARATOGA       CLOUDY    50  30  46 SW12      29.78S
LARAMIE        FAIR      50  28  42 SW16      29.75F
CHEYENNE       FAIR      58  28  32 W20       29.72F
TORRINGTON     FAIR      60  37  42 NW10      29.65F
PINE BLUFFS    FAIR      61  32  33 SW12      29.70F

$$


USA.gov is the U.S. government's official web portal to all federal, state and local government web resources and services.